Theta_e
336 328 329 328 325 325 319 318 305 307 308 300 300 302 298 305 305 305 303 306 304 307 308 310 310 308 306 305 306 308 308 305 306 301 302 319 333 331 343 337 339 345 346 348 348 351 353 350 353 355 355 354 354 353 353 352 352 350 350 349 349 347 346 347 348 348 348 348 348 348 348 348 348 348 348 349 349 349 349 348 347 346 345 346 344 346 345 343 342 342 341 340 337 334 334 334 335
327 327 329 327 325 321 314 315 307 302 303 298 298 301 301 303 305 303 302 304 305 306 308 310 310 310 309 309 310 309 307 310 310 310 314 323 330 330 339 339 339 342 345 348 349 350 351 353 349 355 355 354 354 353 353 352 352 351 350 349 348 346 347 347 348 348 348 348 348 348 347 347 348 348 348 349 349 349 348 348 347 347 346 346 346 345 345 343 343 342 340 338 336 333 332 333 335
325 325 324 327 322 319 317 313 303 301 300 295 298 299 303 302 302 303 304 306 307 308 309 309 309 309 309 310 307 307 303 312 312 313 316 323 322 327 335 341 340 344 345 348 347 348 351 350 346 354 355 354 354 353 353 352 352 351 350 349 347 346 346 348 348 348 348 348 348 347 347 347 347 347 347 348 348 349 348 348 346 346 345 344 347 345 344 342 342 341 338 336 335 332 331 333 335
328 329 320 320 316 317 310 307 305 301 299 298 297 301 302 302 302 304 306 307 308 309 309 308 306 311 308 306 306 310 309 309 313 313 316 320 324 331 333 337 340 342 347 348 348 348 351 349 347 353 355 354 354 353 352 352 351 351 350 349 348 346 347 347 348 348 347 347 347 346 346 347 347 347 347 347 348 347 348 347 346 346 346 345 345 345 343 342 341 338 335 333 332 330 330 333 334
328 328 323 321 317 310 310 307 303 303 297 299 297 301 302 303 303 304 306 308 308 308 309 308 308 309 310 309 310 307 306 313 314 317 321 328 334 333 336 341 339 340 346 347 348 347 351 346 348 352 354 353 354 353 352 352 351 351 350 349 347 347 347 347 347 348 347 347 347 346 345 346 346 346 346 346 347 347 347 346 345 344 344 344 344 343 342 342 339 336 334 330 329 330 330 332 334
326 325 327 320 314 314 309 302 301 300 301 303 299 300 303 304 304 305 306 308 309 309 308 308 306 306 307 308 310 308 311 307 313 321 321 326 334 339 340 339 339 338 344 348 348 347 355 344 348 352 354 353 353 352 352 351 351 350 350 349 348 347 347 347 347 347 347 347 346 346 345 346 346 346 346 346 346 347 345 344 344 343 343 342 342 343 342 341 339 336 334 330 327 329 330 331 332
319 318 319 318 315 316 306 302 301 301 301 305 302 302 304 305 305 306 305 306 308 307 308 306 309 307 305 308 311 313 317 316 316 318 331 334 336 340 342 340 340 339 343 347 348 348 356 344 350 353 352 353 352 351 351 351 350 350 350 349 348 347 348 347 348 347 346 347 346 346 346 346 345 345 346 346 346 346 345 345 344 343 342 342 342 342 341 340 338 336 334 331 328 328 328 330 331
325 319 316 311 308 308 303 302 302 304 301 305 305 304 305 305 306 305 305 305 303 305 306 307 309 306 304 311 305 313 319 319 323 332 333 334 338 339 341 341 340 340 342 347 348 352 345 343 348 351 351 353 352 351 351 351 350 349 350 349 348 348 348 348 347 347 346 347 346 346 346 346 345 345 346 346 346 345 345 344 344 343 343 342 341 341 340 339 338 336 334 331 327 327 327 329 330
321 315 320 313 304 307 302 301 302 304 303 305 304 306 308 306 306 306 304 305 305 306 306 306 308 304 304 307 307 313 315 324 329 328 333 334 335 338 338 341 343 341 344 346 347 353 353 339 345 349 350 352 352 350 351 351 350 349 350 349 348 348 348 348 347 347 347 347 346 345 346 346 345 346 346 346 346 345 344 344 343 342 341 341 341 340 339 338 338 335 333 331 327 326 327 328 329
317 312 308 309 309 301 301 301 300 302 303 305 305 305 305 306 305 306 305 304 305 305 306 308 308 303 305 305 307 310 311 317 322 325 332 335 335 337 336 339 342 342 343 345 346 345 351 343 340 344 347 351 352 351 350 350 350 349 349 349 348 347 347 348 347 348 347 346 346 346 346 346 345 344 345 345 345 343 345 343 342 341 340 340 340 339 338 337 336 335 332 330 327 325 326 326 327
309 311 314 306 301 300 299 299 302 303 303 305 305 306 306 306 306 305 305 305 306 305 306 307 307 305 305 306 308 314 313 315 318 319 329 336 337 335 335 338 340 342 342 345 345 345 349 349 340 338 343 346 349 350 349 349 350 349 348 348 348 348 348 348 348 347 347 345 345 345 345 345 344 343 343 343 343 343 343 342 340 339 339 339 339 337 336 335 335 334 332 329 326 326 325 326 327
307 306 309 302 301 300 300 301 301 303 304 304 303 306 306 306 305 304 305 304 305 305 305 307 304 307 305 305 308 311 311 311 317 322 329 334 334 336 336 337 338 338 341 342 343 343 343 349 349 341 336 340 343 346 348 347 348 349 348 348 347 348 348 348 348 348 348 347 345 344 344 342 344 344 344 344 344 343 342 341 340 339 339 339 338 336 335 335 334 333 330 328 325 325 325 325 325
310 307 304 300 302 300 302 300 301 302 302 303 303 305 306 305 304 305 305 305 305 305 305 307 307 308 303 305 309 311 309 309 315 324 329 331 333 337 338 336 337 337 338 340 341 341 342 342 346 348 344 332 337 340 342 342 344 346 348 348 347 348 348 349 349 349 348 348 346 345 345 344 341 343 343 343 343 343 342 340 339 340 339 338 337 336 335 334 333 331 329 327 324 322 323 324 324
313 309 306 302 302 301 299 301 302 299 300 303 305 306 306 305 305 306 306 304 305 304 306 309 308 307 304 306 306 308 307 310 313 322 330 332 333 333 337 337 337 337 338 338 338 339 340 341 341 345 350 349 349 343 335 338 341 343 345 344 345 345 346 347 347 346 347 346 345 343 340 340 341 342 342 341 342 342 341 341 340 339 339 337 336 335 334 333 332 330 329 327 323 320 319 320 321
309 311 306 303 300 299 302 299 300 299 300 304 304 305 305 306 306 306 305 304 304 308 309 309 310 305 302 303 305 306 307 310 313 320 330 330 332 332 334 335 335 336 336 337 338 338 339 340 341 343 345 346 347 347 349 347 335 339 340 340 340 343 344 343 343 343 341 341 340 338 335 333 332 333 334 336 337 337 335 334 340 339 338 337 336 334 334 333 331 330 328 326 323 318 316 317 317
314 310 306 301 298 298 299 300 303 300 301 305 304 305 305 306 307 305 306 306 306 311 309 305 309 305 306 305 304 306 309 311 313 319 324 327 329 329 328 330 330 334 335 336 336 338 338 339 341 342 343 343 345 346 346 348 336 334 338 337 337 338 339 339 339 338 331 329 330 331 329 333 330 333 326 336 332 333 332 334 335 338 337 336 335 334 333 333 331 330 327 325 321 315 313 314 314
314 312 301 300 298 297 300 300 300 297 302 305 305 305 304 304 307 307 308 308 305 306 307 308 306 309 305 305 307 308 310 312 314 317 319 319 324 323 321 321 325 324 328 330 334 335 337 337 338 340 341 342 343 344 345 346 349 332 334 332 332 333 336 335 336 327 321 320 323 323 326 343 344 341 336 339 325 339 324 326 332 336 336 335 334 334 333 333 332 329 327 324 319 313 312 314 314
312 306 301 299 300 298 302 301 303 305 303 304 304 304 304 303 306 306 307 306 306 306 306 306 307 307 308 308 309 310 311 312 312 313 313 314 316 315 315 316 316 316 319 320 323 321 327 335 338 338 340 341 342 344 345 346 350 341 347 347 344 338 332 329 336 346 336 346 326 332 344 343 343 343 342 335 338 336 331 324 327 333 335 334 333 334 334 333 332 330 326 324 318 315 315 316 315
307 302 300 299 300 301 304 305 305 304 303 305 305 304 304 304 304 306 303 304 305 304 306 306 304 307 308 308 309 309 310 310 311 312 312 312 313 312 313 315 315 316 316 318 319 319 321 323 333 336 338 340 342 342 344 345 345 347 346 346 346 338 341 343 345 344 346 344 345 345 342 342 342 342 343 339 339 328 335 323 327 330 333 331 331 333 334 332 331 329 326 322 320 317 322 320 313
305 305 300 301 303 302 304 305 304 306 305 304 304 304 303 305 304 307 303 303 304 303 304 304 304 304 306 306 308 308 309 310 311 311 311 312 312 312 312 312 313 315 316 317 318 322 321 321 321 330 337 339 339 340 342 342 343 345 343 344 345 344 345 344 345 344 346 345 344 344 343 342 342 341 329 326 330 337 334 321 324 325 326 326 325 330 330 331 331 327 325 323 322 322 323 319 316
308 304 301 301 303 302 303 304 305 305 305 304 303 304 302 305 305 305 304 302 304 303 302 301 302 304 305 306 307 308 308 308 310 310 311 311 312 313 312 312 313 314 317 319 321 321 321 321 322 321 333 338 340 339 339 340 341 342 343 342 343 345 343 344 344 345 344 344 342 342 343 343 344 341 342 340 339 338 337 334 332 332 333 333 323 334 333 332 329 328 327 325 326 325 323 321 320
305 303 303 303 302 303 304 305 305 305 305 303 303 301 303 306 305 304 304 300 302 302 302 303 304 304 304 304 306 307 307 308 308 309 309 310 310 311 311 313 314 315 316 317 317 319 320 320 322 322 322 334 338 340 339 339 341 340 341 342 342 344 345 345 343 344 343 342 343 343 342 342 341 341 341 340 338 338 337 334 332 333 333 334 331 334 334 333 332 330 328 327 325 324 323 321 320
302 303 304 304 305 303 305 305 305 304 303 303 302 304 305 303 303 305 304 302 303 304 304 304 304 304 305 306 306 306 306 307 307 308 309 309 309 310 310 311 311 312 315 316 317 317 319 320 321 321 321 329 335 338 339 339 339 341 340 341 341 341 342 341 342 343 343 344 343 343 340 339 340 340 341 341 338 337 337 337 335 335 334 334 334 334 333 332 330 329 328 326 325 324 322 321 320
303 301 303 303 305 303 305 305 304 304 303 302 305 304 302 303 301 303 302 302 304 304 304 304 304 305 305 304 305 305 305 306 306 308 309 308 309 309 310 310 311 314 315 315 316 317 318 319 320 320 319 327 334 336 337 338 339 339 340 341 341 337 342 343 342 340 342 341 342 341 340 343 340 340 340 339 340 338 336 336 336 336 336 335 335 334 332 331 329 328 327 327 325 324 323 322 321
303 303 303 304 303 304 305 305 304 304 304 305 303 301 302 303 303 302 301 302 303 303 304 304 304 304 304 304 304 305 305 306 306 307 309 309 310 311 311 311 312 314 313 314 315 317 318 320 321 320 318 327 333 334 335 337 339 340 341 338 338 337 341 339 340 339 337 337 337 339 339 338 337 337 337 337 339 337 337 336 334 335 336 334 334 333 332 330 328 327 327 326 325 324 323 322 321
303 303 303 303 303 304 305 304 304 304 304 304 301 301 304 304 304 301 301 301 303 303 303 303 304 303 303 303 303 304 304 304 306 306 307 309 309 309 309 310 312 312 312 314 315 316 318 321 321 321 321 329 332 333 334 336 339 341 336 332 329 328 329 330 329 329 329 329 330 331 332 334 336 336 336 338 338 337 336 336 336 335 334 333 333 331 331 329 327 326 326 325 324 324 322 321 321
303 303 303 303 304 304 305 303 305 305 304 303 301 302 303 302 301 298 299 302 303 303 302 303 303 302 302 303 303 304 304 304 304 306 307 308 308 307 309 310 309 310 311 311 312 316 319 321 322 323 326 333 333 332 334 332 329 328 327 325 324 324 325 325 324 324 324 325 325 326 326 327 329 331 333 335 338 335 335 335 333 333 330 328 329 329 329 328 326 325 324 324 324 323 321 321 320
303 302 303 303 304 304 305 304 304 304 302 304 302 301 302 301 299 300 299 302 303 302 302 302 302 303 302 302 303 304 304 305 305 306 304 305 305 305 306 305 305 307 309 309 311 317 319 321 323 325 326 332 331 327 326 325 323 323 324 322 321 321 322 321 320 320 319 320 322 324 324 324 324 325 326 326 330 330 328 326 324 323 323 325 326 325 323 323 323 322 323 323 323 323 321 321 321
302 303 299 303 304 302 305 303 303 302 301 301 303 300 298 298 299 300 301 301 303 303 302 301 301 302 302 302 302 302 303 304 305 305 304 304 305 305 304 305 304 304 308 309 313 317 318 319 320 322 325 324 324 322 321 320 320 319 318 318 316 317 318 319 318 317 317 317 318 321 322 323 323 323 321 321 320 322 320 319 318 318 319 322 324 324 323 323 322 321 321 322 323 322 321 321 321
303 302 301 300 302 302 302 302 302 301 301 302 302 294 299 299 301 301 301 302 302 302 302 301 301 301 301 302 302 302 302 303 303 303 303 304 304 304 303 304 304 304 305 309 314 316 317 318 317 317 317 316 315 316 317 315 315 315 314 315 314 313 314 314 315 316 316 315 314 315 317 320 320 321 320 319 319 318 317 316 315 316 318 318 319 319 321 322 321 321 321 321 318 321 320 319 318
299 303 302 298 298 299 301 302 301 300 300 301 302 295 299 299 300 302 302 302 302 302 302 301 301 301 301 301 301 302 302 302 302 302 303 304 302 302 302 304 304 304 305 307 310 314 315 314 314 312 313 313 312 311 310 310 312 312 311 311 311 311 311 310 311 313 314 313 313 313 313 314 318 317 317 316 316 316 315 314 314 314 315 317 317 317 318 319 321 319 318 320 320 319 319 318 317
302 298 297 301 298 299 300 302 302 300 299 302 300 295 299 299 300 301 302 301 301 302 302 301 301 300 300 301 301 301 301 302 302 302 302 303 302 301 302 302 303 303 304 305 309 313 312 312 311 309 309 309 308 308 308 307 307 308 308 307 308 309 307 306 307 308 309 311 311 311 310 310 311 315 316 316 315 313 312 312 312 314 315 314 314 314 314 313 312 312 311 311 314 315 315 315 315
301 298 297 298 300 300 299 299 301 301 301 301 300 297 300 298 300 301 302 302 301 301 301 301 300 299 300 300 300 301 301 302 302 302 301 301 301 301 302 302 302 303 304 305 307 309 310 309 309 307 306 307 307 306 306 306 305 305 305 305 305 305 305 304 304 305 306 306 307 307 308 307 307 307 308 311 311 311 310 309 309 309 308 308 309 309 308 310 310 308 306 306 308 307 307 308 309
299 300 297 300 298 299 297 298 301 302 300 299 301 298 299 300 300 300 301 302 301 301 301 300 300 300 300 300 300 300 300 301 300 300 300 300 301 301 302 302 302 302 303 305 307 308 308 308 307 307 305 305 305 305 304 304 304 304 303 303 302 302 302 303 303 303 303 303 303 304 305 305 305 305 305 306 306 306 306 306 306 306 306 306 305 305 304 305 306 306 303 303 304 305 305 305 306
298 299 297 297 299 298 298 297 299 300 300 299 300 299 299 301 300 300 300 301 301 301 301 300 299 299 299 299 299 299 300 300 298 299 300 300 300 300 301 301 302 302 303 304 306 307 308 307 307 306 305 305 304 304 304 303 302 302 301 301 301 301 301 300 301 301 301 301 301 301 302 302 303 304 304 304 303 302 302 303 303 304 304 303 303 303 303 304 304 305 305 304 304 305 304 305 304
299 299 298 298 296 298 298 300 300 301 298 298 299 297 300 302 300 300 300 300 300 301 300 299 299 298 298 298 299 299 299 298 299 299 300 300 300 300 300 300 301 301 302 303 305 305 306 307 306 305 305 304 305 304 304 303 302 302 300 300 299 299 299 298 299 299 300 299 300 299 299 299 300 301 302 302 302 302 302 302 302 303 303 303 302 302 302 303 304 306 305 306 305 304 303 303 303
300 299 298 297 297 298 301 299 299 300 298 298 299 300 300 301 303 301 300 300 300 300 298 298 298 298 298 298 298 298 298 298 300 299 300 300 300 300 300 300 301 301 301 303 304 304 304 305 305 303 304 305 305 304 303 302 300 299 299 298 297 297 297 298 298 298 298 298 299 299 299 298 299 299 300 301 301 301 301 302 303 302 302 302 302 301 302 303 304 305 305 304 303 301 300 302 302
299 298 297 296 298 295 300 299 298 300 297 297 300 299 299 300 302 302 300 298 298 299 298 299 298 298 298 298 298 298 298 299 299 299 299 300 300 300 300 299 299 300 299 301 302 302 303 304 303 304 304 304 302 301 300 300 300 300 298 296 296 296 296 296 296 297 297 298 297 298 298 298 298 298 298 299 299 299 299 299 300 300 301 300 300 301 301 301 302 302 305 303 303 300 297 299 299
299 297 297 296 297 300 301 299 298 298 296 296 299 297 298 300 302 302 299 298 300 300 300 299 298 297 297 297 298 297 297 298 298 298 298 300 299 299 299 298 298 298 298 299 301 302 302 302 302 302 302 302 302 301 300 298 298 298 297 296 296 295 296 296 296 296 296 295 296 296 296 296 296 296 297 297 298 297 297 297 297 298 298 298 296 296 297 297 298 298 299 300 300 300 298 298 297
297 297 295 293 298 296 294 297 297 297 297 297 298 295 297 301 303 301 300 299 298 298 297 298 298 297 297 297 297 297 297 297 297 297 297 298 299 298 298 298 298 298 298 299 299 300 301 301 301 301 300 299 298 298 298 297 297 298 298 297 297 296 294 295 295 295 294 294 294 294 295 295 295 295 295 295 296 296 296 295 296 296 295 296 295 294 294 295 295 296 296 297 297 293 294 296 297
298 298 297 296 297 298 296 297 297 297 298 298 297 295 296 299 299 297 296 296 295 295 295 295 296 297 297 297 296 297 297 297 296 296 297 297 297 297 297 296 297 296 297 298 298 299 299 300 300 300 299 298 298 298 298 298 297 296 296 296 296 295 295 294 293 292 292 292 292 293 293 294 294 294 294 294 294 294 295 295 295 294 294 295 294 293 292 293 294 294 295 294 295 293 291 293 295
297 299 298 298 299 297 298 299 296 295 296 296 296 290 293 300 301 300 295 294 293 294 294 294 294 294 294 294 295 295 296 297 297 297 296 297 297 296 296 296 296 296 296 297 298 299 300 299 299 299 299 300 299 299 299 299 298 297 296 295 293 293 291 291 290 289 290 290 290 292 293 293 293 293 294 294 294 294 294 294 294 293 293 293 293 293 292 292 293 293 293 293 292 294 292 291 290
295 297 301 299 298 298 298 297 295 291 290 294 296 290 289 297 296 298 296 294 294 293 293 294 294 294 294 294 295 295 295 294 295 295 296 296 296 296 296 295 296 295 295 297 298 298 299 299 299 299 298 298 299 299 300 300 299 297 296 295 294 292 290 290 291 291 291 291 292 291 292 293 293 293 293 293 293 293 293 293 293 293 293 293 293 292 292 292 292 292 293 292 291 292 293 290 289
294 300 301 300 299 297 297 297 296 294 299 297 294 295 289 289 297 299 298 295 295 293 293 294 294 294 293 294 295 295 295 295 295 295 295 296 296 296 294 294 295 295 295 296 296 297 297 297 297 297 297 297 297 298 298 298 296 295 294 293 292 291 291 290 290 291 292 291 291 291 291 292 292 293 292 293 293 293 293 292 293 292 292 292 292 291 291 292 292 293 292 293 292 291 291 290 289
297 297 301 299 298 298 298 297 295 295 293 289 292 296 288 289 295 298 297 294 295 295 294 294 294 294 294 294 294 295 295 295 295 295 294 294 294 294 294 293 294 294 295 295 295 296 296 296 296 296 296 296 296 297 296 296 295 294 293 292 291 291 291 291 291 292 291 291 291 291 291 291 291 292 292 291 292 292 291 292 291 291 291 291 291 291 291 291 291 291 291 291 291 291 291 291 290
298 299 300 299 299 298 298 295 294 293 290 285 292 295 288 289 297 295 295 294 295 297 296 295 295 294 294 294 294 294 294 294 295 295 294 294 293 293 293 293 293 293 294 295 295 296 296 296 295 295 295 295 295 295 295 295 295 294 293 292 291 291 291 291 291 290 291 291 290 290 291 290 290 290 291 291 291 291 291 291 290 290 290 290 290 290 291 290 290 290 290 290 290 290 291 290 289
299 300 298 297 296 296 295 295 293 290 285 287 293 295 292 286 295 297 295 297 298 299 297 297 296 295 294 294 294 294 293 293 293 293 293 292 292 292 293 292 292 293 294 295 295 295 295 295 294 294 294 294 295 295 295 294 294 294 293 293 292 291 291 291 290 290 290 290 290 290 290 290 290 289 290 290 290 291 290 290 290 289 289 289 289 289 289 289 289 289 290 290 289 289 289 289 289
300 297 295 295 292 294 292 290 292 285 284 291 293 295 295 284 291 298 298 297 299 298 296 295 294 293 293 293 293 294 294 293 293 292 291 291 291 291 292 291 292 292 293 294 294 294 294 294 294 293 293 293 294 294 294 294 294 294 294 293 293 292 292 291 290 290 290 290 290 289 290 290 289 289 289 289 289 289 289 289 289 289 288 288 288 288 288 289 289 289 289 289 288 288 289 288 288
298 296 294 289 288 286 284 287 283 284 284 287 290 291 289 289 294 297 296 297 296 298 299 297 294 294 293 293 293 294 294 294 293 292 291 291 291 291 291 291 291 292 292 293 293 294 294 294 293 292 292 293 293 294 293 293 293 293 293 293 292 292 292 292 291 290 291 290 290 289 289 288 288 288 288 287 288 288 288 288 288 287 287 287 288 288 288 288 288 288 288 288 288 287 287 288 286
294 293 290 288 285 284 281 285 287 287 287 288 289 292 286 293 296 300 298 295 296 295 297 298 296 294 293 293 293 293 293 293 293 292 292 292 291 291 291 291 291 292 292 292 293 293 293 293 293 292 292 293 293 293 292 292 292 292 292 292 292 291 291 291 291 290 290 290 290 289 288 288 287 287 286 287 287 288 287 288 287 287 287 287 287 287 287 287 288 287 287 286 286 286 286 287 286
293 298 295 290 290 286 281 284 282 284 286 285 290 286 286 286 292 293 293 293 293 293 295 298 297 296 294 294 293 293 293 293 293 292 292 292 292 291 291 291 291 291 292 292 292 293 293 292 292 291 291 292 292 292 292 291 291 292 292 292 291 291 291 290 290 290 289 289 289 288 288 288 287 286 286 286 287 287 287 286 286 286 286 286 286 285 286 286 286 286 286 286 286 286 285 285 285
296 297 299 292 290 295 287 286 285 285 285 283 284 286 293 293 294 294 292 293 292 293 293 295 295 295 294 293 292 292 292 292 292 292 292 292 292 291 291 291 291 291 291 292 292 292 292 292 291 291 291 291 291 291 291 291 291 291 291 290 290 290 290 290 289 289 289 289 288 288 287 287 287 286 286 286 286 286 286 286 286 285 285 285 285 284 284 285 285 285 284 285 284 286 284 285 284
293 294 288 292 297 294 287 284 285 284 284 284 289 288 292 296 293 293 293 292 292 292 292 293 293 293 293 292 292 293 293 292 292 292 291 291 291 291 291 291 291 290 291 291 292 292 292 291 291 291 291 291 291 291 291 291 290 290 290 290 290 290 290 289 288 288 288 288 288 287 286 286 286 286 286 286 285 285 284 285 285 284 284 284 284 284 283 283 284 284 284 284 283 283 283 284 284
294 288 293 296 299 297 290 285 286 284 282 284 288 286 289 289 287 292 292 291 291 292 291 293 293 292 291 292 293 293 293 293 292 292 292 291 291 290 290 291 291 290 291 291 291 292 292 292 291 291 290 290 290 290 290 290 289 289 289 289 289 289 289 288 288 288 288 287 287 286 286 285 285 285 285 285 284 284 284 283 283 283 283 283 283 283 282 282 283 283 283 283 282 282 282 283 283
295 293 301 291 286 285 291 287 280 281 281 284 287 289 289 291 291 290 291 291 292 291 291 291 291 291 291 292 293 293 293 293 292 291 291 290 290 290 290 290 290 290 291 291 292 292 292 291 291 291 290 290 290 290 290 290 290 289 289 288 288 288 288 288 288 288 288 287 286 285 285 284 284 284 284 284 283 283 283 282 282 282 282 282 282 281 281 281 282 281 282 282 281 281 280 281 282
296 296 294 299 293 290 287 287 287 288 283 283 284 285 285 294 295 296 296 295 295 292 291 290 291 291 292 293 293 293 293 292 292 291 291 291 290 290 290 289 289 290 290 290 291 291 291 291 291 290 290 290 290 289 289 289 289 289 288 288 287 287 287 287 287 286 286 285 285 284 284 283 283 283 283 283 282 282 282 281 281 281 281 281 281 280 280 280 280 280 280 280 280 279 279 279 280
288 290 291 292 290 292 292 292 288 286 284 284 284 283 287 294 298 298 298 298 296 293 292 292 292 293 293 294 294 293 293 293 292 292 291 291 290 290 290 290 290 290 290 290 291 290 291 291 290 290 289 289 289 289 289 288 288 288 287 286 286 286 286 286 286 285 284 284 284 283 283 283 282 282 282 282 281 281 281 281 280 280 280 280 279 279 279 279 279 279 278 279 278 278 278 278 279
292 291 290 291 288 286 284 283 291 287 285 284 284 282 289 295 293 295 294 296 298 296 293 294 294 294 294 295 295 294 294 294 293 292 292 291 290 289 289 289 289 289 289 289 290 290 290 290 290 290 290 289 288 288 288 287 287 287 286 286 285 285 285 285 284 284 283 283 282 282 282 282 281 281 281 281 280 280 280 280 280 279 279 278 278 278 278 278 277 277 277 279 278 277 277 277 278
Wind_Speed
9 6 5 5 5 5 5 3 4 3 4 5 4 2 6 2 1 4 4 5 3 6 5 3 4 3 7 6 7 8 8 9 9 7 6 3 4 5 4 5 4 4 9 8 9 11 10 5 5 7 10 11 11 11 12 12 12 11 10 10 10 9 9 9 9 9 9 9 10 10 10 9 9 9 10 10 11 12 13 12 12 13 13 11 12 14 14 14 14 14 14 14 13 12 11 10 10
6 6 5 4 4 3 3 1 3 3 3 5 5 3 6 4 5 6 6 7 7 5 5 3 2 3 4 6 4 4 6 10 9 7 8 6 7 7 3 4 3 5 8 8 10 10 11 9 4 7 10 11 12 11 12 13 12 11 10 9 9 9 8 9 8 8 8 9 9 9 9 9 9 9 9 9 11 12 12 12 12 12 12 11 12 14 14 14 14 14 14 13 12 11 10 10 10
6 5 4 5 5 5 2 2 4 2 3 4 5 6 3 2 6 4 7 7 6 4 3 1 1 3 3 5 5 6 8 7 6 6 7 5 4 8 5 2 3 1 8 7 8 11 10 10 6 8 9 11 12 12 12 13 12 11 10 9 9 8 8 8 8 8 8 8 8 9 8 9 8 8 9 9 10 12 11 11 11 11 11 11 12 14 13 13 13 14 13 13 12 11 11 10 10
6 4 5 3 2 2 4 4 5 2 3 5 5 4 3 5 6 5 5 6 4 1 1 0 2 4 6 2 7 4 7 7 8 8 4 7 6 6 5 2 1 2 6 6 7 10 9 11 8 7 8 11 12 12 12 12 12 11 10 9 8 8 7 7 7 8 8 8 7 8 8 8 8 8 8 9 10 11 12 11 11 10 11 12 13 13 12 13 14 14 14 13 12 11 11 11 11
5 3 3 4 4 3 4 2 3 3 3 1 5 6 5 4 7 4 6 5 4 1 3 3 3 3 4 4 4 4 7 5 11 10 5 5 8 7 2 2 1 2 6 8 7 8 8 15 10 7 9 11 12 12 12 11 11 11 10 9 8 7 7 7 7 7 7 7 7 7 7 7 7 8 8 9 10 11 11 11 10 10 11 12 12 12 13 14 13 13 14 13 12 12 11 11 11
5 4 1 4 3 3 3 4 4 3 7 5 6 6 5 6 5 4 6 4 4 2 3 3 6 1 4 6 7 6 11 3 6 8 9 7 10 7 4 2 2 3 6 7 6 6 9 12 10 8 10 11 13 13 12 12 12 11 10 10 8 8 8 7 7 7 7 7 6 6 7 7 7 8 8 9 10 11 11 11 11 12 12 12 12 13 13 14 14 14 14 13 13 12 12 12 12
3 4 3 3 2 2 4 1 3 4 6 7 8 7 6 5 5 1 7 7 4 4 2 4 3 2 4 5 9 8 9 7 4 6 7 6 6 5 4 2 1 3 6 6 6 5 12 10 8 6 7 9 12 12 12 12 11 11 11 10 9 8 8 7 8 7 7 6 6 7 6 7 7 8 8 9 10 10 10 11 11 12 12 13 13 13 13 14 14 14 14 13 13 12 12 12 12
2 4 2 5 2 4 2 2 4 3 5 6 5 8 6 5 2 0 4 4 4 2 3 3 1 5 8 3 3 6 11 10 6 5 6 6 6 4 5 4 3 5 5 5 6 7 10 10 7 3 6 8 9 10 12 11 11 11 11 10 9 8 9 8 7 7 7 6 6 6 6 7 7 8 9 9 10 10 11 10 11 12 12 13 13 13 14 14 15 14 14 13 13 12 12 12 12
2 4 1 4 3 1 1 1 5 5 7 3 6 7 5 4 2 3 4 4 6 2 2 5 5 6 6 5 8 7 9 7 6 9 8 7 6 5 4 7 6 5 4 3 6 9 8 7 7 3 4 7 10 12 12 12 13 12 12 11 10 9 8 8 7 6 5 6 5 5 5 6 6 9 9 10 10 11 11 11 11 12 12 12 13 14 14 14 14 15 14 13 12 12 12 12 12
3 2 2 3 3 4 2 3 4 4 5 4 4 6 4 2 2 3 1 4 5 1 5 2 5 5 1 6 8 6 6 8 6 9 9 7 6 5 6 7 6 4 3 3 3 4 6 7 6 2 3 5 7 10 10 12 12 11 12 12 10 9 8 8 8 7 5 5 5 5 6 4 5 6 8 10 10 9 11 11 11 11 11 12 13 14 14 14 14 14 14 13 12 12 12 12 12
2 2 2 4 4 1 4 5 3 5 5 5 5 5 4 2 1 1 2 4 2 2 4 2 3 5 3 5 7 5 8 10 10 10 8 6 5 6 5 5 6 6 4 3 2 3 7 7 7 2 3 3 5 6 8 9 11 11 10 10 11 10 9 8 8 6 5 4 5 4 4 7 6 5 7 8 9 9 10 11 12 11 11 12 13 13 13 13 13 14 14 13 13 12 12 12 12
3 2 2 4 3 2 1 3 4 5 6 5 5 4 2 1 1 4 2 2 3 4 4 6 4 5 5 4 6 7 11 14 10 8 6 4 5 5 4 4 6 5 5 2 1 2 2 7 6 4 2 2 3 4 7 6 7 9 10 11 11 9 8 8 7 7 4 2 5 4 5 6 8 8 7 9 9 10 11 10 11 12 13 13 13 13 13 13 13 13 13 13 12 12 12 12 12
3 1 4 5 3 2 5 1 4 5 6 5 6 5 0 2 2 1 1 2 1 3 5 6 4 4 3 1 7 8 12 11 10 7 5 4 4 4 4 5 5 5 4 3 1 1 2 3 6 8 6 3 3 2 5 7 6 7 9 11 10 9 8 8 7 6 4 4 6 5 4 6 4 6 8 8 9 9 10 10 10 12 13 13 13 13 13 12 13 12 12 12 12 11 12 12 12
4 3 4 1 1 1 2 2 5 5 5 7 5 3 2 2 2 3 3 4 2 4 5 4 3 4 6 3 6 6 8 11 9 7 4 3 3 4 5 5 5 5 4 2 2 1 2 2 4 7 8 7 8 5 4 8 8 7 6 7 9 9 8 7 7 6 5 5 8 8 5 4 6 5 5 5 6 8 8 7 9 13 13 13 13 13 13 12 12 11 11 12 12 11 11 11 11
2 1 2 0 2 4 2 3 5 7 5 6 4 1 4 4 2 2 4 6 6 4 2 1 3 6 3 4 5 7 9 11 9 6 2 3 4 5 5 5 6 5 5 4 3 2 2 1 3 4 7 8 9 8 8 7 10 8 7 5 4 7 9 8 7 6 6 6 9 10 9 7 7 5 6 6 5 3 9 9 10 11 13 13 13 12 12 12 11 10 10 11 11 11 11 11 11
3 3 2 3 3 4 5 3 2 6 5 5 5 2 2 4 1 3 3 4 5 1 4 2 3 4 5 4 5 7 9 9 8 5 1 2 2 3 5 5 5 6 5 3 3 2 1 2 3 3 5 7 8 9 8 8 9 10 9 7 6 5 6 8 7 6 7 8 9 10 9 8 8 7 9 4 1 2 6 9 10 11 12 13 12 12 12 12 11 9 10 10 10 10 10 10 11
2 2 4 3 4 5 6 3 5 3 8 6 3 0 3 4 4 1 1 3 5 1 2 4 4 4 7 6 6 6 8 7 7 3 0 0 3 4 3 3 3 5 3 4 2 2 1 2 3 4 5 6 7 8 7 7 7 10 8 10 9 6 3 1 4 7 7 6 8 9 9 7 7 6 7 7 4 1 3 10 9 9 11 11 11 11 11 12 11 10 9 9 9 7 8 9 9
3 3 3 4 2 2 5 2 2 5 5 6 3 2 2 3 3 3 3 6 6 5 3 9 9 10 8 6 5 6 7 8 8 6 5 3 3 2 2 4 3 4 3 3 3 3 1 2 3 4 4 6 6 5 5 5 6 8 10 8 8 8 8 6 5 5 6 6 5 6 6 6 6 7 7 10 7 5 5 9 11 10 9 8 9 10 11 12 11 11 10 9 8 7 6 2 4
3 1 3 2 1 5 2 4 4 2 5 3 3 1 3 2 4 3 6 3 4 6 5 7 8 9 8 8 7 7 8 9 9 8 8 8 5 5 4 3 4 4 4 3 3 4 3 2 2 4 5 5 6 6 5 5 6 6 8 8 8 10 9 9 8 7 7 7 6 6 6 5 5 5 6 7 7 7 7 9 12 11 8 7 7 7 9 11 10 10 9 7 6 7 4 4 4
2 4 3 3 4 5 4 1 4 4 2 2 1 2 3 2 2 3 5 6 7 6 2 5 8 5 7 7 8 7 8 8 9 8 8 8 7 6 6 5 5 5 5 4 3 3 4 4 4 4 5 5 5 6 5 6 6 6 6 7 6 6 7 8 8 7 6 4 4 5 5 5 5 4 8 10 8 6 6 6 12 10 8 6 7 4 7 8 10 8 6 5 5 2 5 4 4
3 4 3 5 4 3 5 2 3 3 1 2 1 1 5 2 1 4 5 8 7 9 9 6 6 6 6 7 6 6 7 7 8 8 8 8 8 6 6 6 5 5 5 5 4 5 5 5 5 4 3 6 7 5 6 6 5 5 5 5 6 5 4 6 6 6 6 6 6 5 4 4 4 5 6 6 6 8 7 5 6 6 6 6 7 4 5 6 6 5 2 3 5 4 5 5 4
3 3 4 3 3 2 6 3 3 1 2 3 1 4 1 3 5 5 5 6 2 4 5 4 4 5 5 5 5 5 6 7 8 8 8 8 9 8 7 6 5 5 5 4 6 6 6 5 5 4 5 5 7 6 6 4 3 5 5 5 5 6 6 5 5 6 6 7 5 5 4 4 5 5 6 7 6 7 7 7 7 6 5 6 6 3 4 4 3 4 5 4 4 5 5 5 5
3 5 2 1 1 2 4 3 4 2 3 4 4 1 2 5 6 3 4 4 5 4 4 5 4 4 3 4 4 5 6 8 8 9 8 9 9 9 8 7 7 6 5 6 6 5 6 7 6 5 5 5 7 7 5 4 4 4 4 4 4 4 4 5 5 4 4 3 4 5 4 6 6 4 5 4 5 6 7 7 7 6 6 5 5 1 1 3 4 4 4 4 3 4 4 3 4
5 1 4 4 2 3 3 2 5 4 5 5 3 2 6 6 9 3 4 6 5 5 5 5 4 4 3 4 5 6 7 7 7 8 8 7 8 8 7 7 7 5 6 7 7 6 6 7 7 4 5 6 6 7 6 4 4 4 3 2 2 2 1 2 1 1 0 2 4 3 3 2 3 5 3 4 5 5 6 6 5 5 6 4 2 2 2 4 3 4 4 3 3 3 3 2 2
4 4 3 4 2 4 2 3 5 6 7 5 2 6 9 7 5 3 4 5 5 5 4 4 4 3 4 5 6 6 6 6 6 6 5 5 6 6 7 5 6 6 7 8 7 7 7 7 7 4 4 7 6 6 6 5 4 3 1 2 2 2 1 3 4 5 6 6 8 4 2 3 3 6 5 6 4 4 3 5 6 5 4 2 1 2 3 4 3 3 3 2 3 3 3 3 3
1 3 1 2 4 4 4 6 7 7 5 5 6 9 8 5 2 6 4 5 5 5 4 3 3 3 3 5 6 6 6 6 6 7 7 5 6 7 8 7 7 7 7 7 7 7 7 7 6 2 4 5 5 5 5 5 3 3 7 9 9 10 9 8 9 7 7 7 7 8 9 6 5 5 6 2 2 2 1 3 3 3 0 3 2 3 4 4 3 2 4 2 3 3 4 2 2
3 2 3 5 6 4 6 8 7 4 5 6 8 8 5 4 5 4 4 6 6 5 4 4 2 3 5 4 4 4 5 6 5 5 5 5 6 7 8 8 8 8 7 8 7 7 6 6 5 3 1 2 5 5 4 7 10 8 8 8 8 8 8 8 7 7 7 7 6 7 8 7 6 6 6 6 2 2 2 2 6 6 6 6 5 5 3 3 5 6 5 4 3 3 3 2 2
2 4 6 10 10 9 7 8 8 4 6 8 8 7 2 5 4 2 8 7 7 6 5 4 3 3 4 4 4 4 4 5 5 5 8 8 7 7 8 7 9 8 7 8 7 8 7 6 8 6 2 1 3 10 9 9 9 9 9 8 9 8 8 8 7 7 7 7 7 7 6 6 6 6 7 7 6 7 7 7 6 7 6 5 5 4 5 5 5 5 4 3 2 2 2 1 2
1 4 7 4 6 9 10 8 4 4 3 4 4 5 8 9 7 8 7 7 7 6 5 4 4 3 3 3 4 4 5 5 6 6 7 6 5 5 7 7 7 8 6 7 9 9 8 8 7 8 8 10 11 10 10 8 8 7 8 8 7 6 7 8 8 7 7 7 7 7 8 8 7 7 6 8 6 6 7 7 6 6 5 4 3 5 4 3 5 5 3 1 1 1 1 1 1
3 7 6 9 9 10 6 3 3 6 4 5 5 5 7 12 8 8 7 8 7 6 5 4 4 3 3 3 3 4 3 3 5 5 5 5 5 6 7 8 7 7 6 6 9 10 7 6 5 6 8 10 10 9 9 8 8 7 7 8 7 6 7 8 7 7 7 7 7 8 8 9 8 7 8 8 7 7 8 8 6 6 4 3 4 3 3 4 5 5 3 2 1 1 1 0 2
5 1 3 7 6 3 7 5 6 5 5 6 5 6 2 10 9 7 5 8 8 7 6 5 4 3 3 3 2 3 4 4 4 5 5 5 6 5 7 7 8 8 6 7 9 9 9 7 5 7 8 10 10 11 10 9 8 8 8 8 8 7 8 8 7 7 8 7 7 8 9 9 9 9 8 8 9 8 8 8 6 6 5 4 4 2 3 3 4 5 4 2 1 0 0 1 2
5 4 7 6 6 3 6 5 5 5 4 6 6 6 7 10 9 7 6 7 7 6 5 5 4 3 3 3 3 3 4 4 4 5 6 5 6 6 6 8 8 7 8 8 7 8 9 9 9 9 9 11 11 10 9 10 10 9 9 9 9 9 9 9 8 8 7 7 8 8 10 9 9 9 9 8 8 8 8 6 7 5 5 4 4 5 7 6 5 5 5 5 3 3 4 4 3
7 7 8 8 5 3 7 4 2 1 3 7 9 7 2 7 8 6 5 7 8 6 6 5 5 4 3 3 2 2 4 4 3 5 6 5 6 6 6 7 7 7 7 7 7 6 8 9 8 10 10 10 12 12 12 11 10 11 10 10 10 10 9 9 8 8 8 8 8 8 9 9 9 9 9 7 8 9 8 8 8 8 6 5 6 7 8 6 6 5 5 5 5 4 4 4 4
7 6 7 6 7 5 6 6 4 4 5 6 8 8 10 5 11 10 7 7 8 7 6 6 4 4 3 3 3 3 2 2 3 5 6 5 4 6 6 6 6 6 6 7 7 7 8 8 9 8 9 9 8 9 10 9 9 10 10 10 10 11 11 9 9 9 9 9 9 9 9 9 10 10 9 8 8 8 7 8 6 6 6 8 7 7 6 6 6 6 6 6 6 5 5 6 6
6 4 5 7 8 9 9 5 7 5 6 6 6 10 12 6 10 10 9 8 7 7 6 6 5 5 4 3 3 3 2 2 4 4 4 4 5 5 5 6 6 6 6 7 7 7 6 7 7 8 9 9 10 11 11 11 10 11 10 10 11 11 10 9 9 9 8 8 9 9 10 9 9 10 9 9 8 8 8 7 6 6 6 7 6 5 6 6 6 5 4 3 4 6 6 6 7
9 8 7 7 7 6 5 1 8 5 6 6 10 11 10 11 9 9 8 8 8 6 5 5 5 4 4 4 3 3 3 4 3 4 3 4 4 4 4 5 5 5 6 6 7 7 7 8 7 8 8 8 7 7 7 7 7 8 9 8 10 10 9 9 9 8 8 9 9 10 10 9 9 8 9 10 9 8 8 8 8 8 9 7 7 8 7 7 5 3 5 5 6 6 7 7 8
4 4 8 10 10 11 9 5 4 4 4 10 12 13 14 14 12 10 9 8 7 7 8 7 6 6 5 5 5 4 4 3 3 2 3 3 4 4 4 3 4 5 6 6 7 7 7 7 8 8 6 5 6 6 6 7 8 8 8 9 9 8 8 9 9 9 9 9 10 10 10 9 9 8 8 7 7 8 8 6 6 7 6 6 7 8 7 7 7 5 4 6 7 7 7 8 9
8 9 10 9 8 10 9 1 5 2 3 7 9 10 12 14 13 7 9 9 10 10 10 9 8 7 6 6 6 5 4 4 3 4 3 3 4 4 3 3 4 5 6 6 7 6 7 7 8 7 7 7 7 7 6 7 7 7 7 8 8 8 8 8 9 9 9 9 10 10 10 10 10 9 8 8 8 8 8 8 8 8 8 8 7 8 9 9 9 9 6 5 6 7 7 9 9
8 9 8 8 9 8 10 4 5 3 3 8 9 12 12 11 12 8 11 10 7 8 8 8 8 7 6 6 6 6 5 5 5 4 4 4 4 4 3 3 4 5 5 6 6 6 7 7 7 7 7 6 7 7 7 8 8 8 9 9 9 9 9 9 9 9 9 10 11 11 10 10 10 10 11 10 9 9 9 9 9 9 9 8 9 10 10 10 9 10 10 7 5 6 7 8 10
8 8 8 9 6 6 6 6 1 4 4 4 5 10 11 14 15 8 5 6 5 3 2 3 4 6 7 7 6 6 6 6 6 5 5 5 4 4 3 4 4 4 4 4 5 5 5 6 7 7 7 8 8 8 9 10 11 11 11 11 10 10 9 9 11 10 10 11 12 11 11 10 11 11 12 11 10 11 11 11 10 10 10 9 8 8 9 9 9 10 10 10 8 7 7 7 9
9 11 9 8 10 8 8 3 2 4 9 6 9 11 12 13 15 7 5 4 4 5 5 4 3 2 2 3 2 3 6 6 5 6 5 5 5 4 4 4 4 4 4 4 4 4 4 6 7 8 8 9 8 9 10 10 11 12 11 12 11 11 10 9 9 10 9 9 10 10 10 11 11 11 11 12 11 11 11 10 9 9 9 8 7 8 8 9 9 9 10 9 10 8 8 7 7
10 13 12 12 10 11 9 7 6 8 10 7 7 7 8 4 10 10 8 5 6 7 8 8 7 6 5 5 6 4 2 2 4 5 5 5 5 5 5 4 4 4 4 4 4 5 6 7 8 8 8 7 7 7 8 8 8 9 7 7 8 8 9 8 8 8 8 9 9 8 10 10 10 10 10 10 10 9 9 9 9 8 8 7 7 7 8 8 10 10 10 9 10 11 7 7 7
9 6 12 12 11 10 8 8 0 7 6 3 2 6 7 2 5 7 7 7 8 8 8 9 8 8 7 6 6 6 6 5 3 4 5 6 5 5 5 4 4 5 4 4 4 6 6 7 7 7 7 7 6 6 5 5 6 6 8 9 9 9 9 8 8 8 8 8 8 9 9 9 10 10 10 10 10 9 9 9 9 9 8 8 8 8 9 9 8 9 8 9 8 8 8 7 8
9 5 2 3 6 7 8 7 8 9 5 2 5 6 9 9 7 5 8 8 9 10 10 10 9 9 10 8 8 8 7 7 7 7 6 6 5 5 5 5 4 5 4 4 5 5 7 7 7 7 7 7 6 6 7 7 9 9 10 10 9 10 10 10 9 8 8 8 8 9 8 8 9 9 9 10 10 10 9 9 9 9 9 8 8 8 8 8 7 7 8 8 7 7 8 7 7
2 2 2 2 3 5 6 6 7 6 5 8 7 8 5 8 7 6 7 6 9 11 11 12 11 11 11 10 9 9 8 8 8 8 8 7 6 5 5 5 5 5 4 4 5 5 6 6 7 8 8 7 7 8 9 9 9 10 10 9 11 9 10 9 8 7 8 7 9 8 8 8 8 9 9 10 10 10 9 9 9 9 9 8 8 7 8 8 9 9 9 8 8 7 7 7 6
3 4 6 5 3 1 4 5 5 5 5 11 8 10 7 11 5 6 3 5 8 9 11 12 14 13 12 10 10 10 8 8 7 8 7 6 6 5 5 6 6 5 4 5 5 5 5 6 8 9 9 7 8 9 10 10 10 9 10 10 12 10 9 8 7 8 8 7 8 8 7 7 7 7 8 9 9 9 9 9 9 9 8 8 7 7 7 8 8 8 8 8 8 7 6 7 7
9 7 5 5 4 3 3 3 4 4 12 11 11 12 10 7 4 7 6 5 5 6 7 8 11 12 11 10 11 10 9 9 7 7 7 7 6 6 5 6 6 5 4 4 5 5 6 7 8 9 8 8 8 9 10 10 10 9 9 10 11 11 10 9 9 8 7 7 7 7 7 7 7 7 7 7 9 8 8 8 8 8 8 7 7 7 7 7 7 7 6 7 8 8 6 6 6
7 4 5 4 2 3 5 3 3 7 12 3 3 11 14 10 3 5 5 5 4 6 9 13 14 13 11 10 10 10 9 9 9 8 7 7 7 6 6 7 7 6 5 5 5 5 6 7 8 10 9 9 9 9 10 10 9 10 10 10 11 10 9 8 9 9 8 8 7 7 6 6 6 6 6 7 7 8 7 7 7 7 7 7 7 6 7 6 6 5 6 6 6 6 6 6 6
5 6 7 5 4 2 5 5 8 10 9 2 1 5 3 14 11 3 4 5 4 4 4 12 13 13 12 10 11 10 9 10 9 8 8 8 7 8 7 7 7 7 6 6 6 6 7 8 9 10 10 9 9 9 10 10 10 9 9 10 10 9 9 9 9 8 7 7 6 7 6 6 5 6 6 6 7 8 6 7 7 7 6 7 7 6 6 7 5 5 5 6 6 6 6 5 5
10 11 8 8 8 9 9 7 6 6 2 2 3 4 7 5 9 14 3 8 6 4 5 8 12 13 12 11 11 10 9 10 9 9 8 8 8 7 7 8 7 6 7 7 7 6 6 7 9 10 10 9 9 10 10 11 10 10 9 9 9 8 8 8 7 8 7 6 6 7 6 6 6 6 6 6 5 6 6 6 6 7 6 6 6 6 6 6 5 4 5 5 6 5 5 5 4
12 9 10 9 8 5 8 7 11 5 0 4 1 3 4 5 3 4 6 4 5 5 4 6 10 11 11 11 10 10 11 9 9 9 9 9 9 9 8 7 7 7 7 7 6 7 7 8 9 10 11 10 10 10 9 10 9 9 8 8 8 7 7 7 7 7 7 7 6 7 6 6 6 5 5 5 5 6 6 6 6 6 6 6 6 6 5 5 5 4 4 4 4 4 4 4 3
9 8 5 9 11 4 7 1 3 2 1 4 5 5 3 4 4 5 4 5 4 5 6 7 10 11 12 11 11 11 10 10 10 10 10 10 10 10 8 8 7 7 8 6 7 7 7 8 9 9 10 10 9 10 9 9 9 8 9 9 8 8 7 7 7 6 6 6 7 7 7 6 6 5 5 5 5 5 5 5 5 5 5 5 5 5 5 4 4 4 4 4 4 4 4 4 4
9 7 8 8 5 1 0 1 1 0 2 9 6 5 7 1 3 6 6 5 6 4 6 8 10 11 11 10 11 11 11 11 11 10 10 12 10 10 8 9 8 8 8 8 7 7 8 9 9 10 10 9 10 9 9 9 9 9 9 8 7 7 8 8 7 8 7 7 7 6 6 6 6 5 4 4 5 5 5 4 4 4 5 5 4 5 5 5 4 3 4 3 4 5 4 3 3
9 7 8 5 2 4 1 7 3 3 9 6 8 9 7 7 6 6 7 6 8 7 7 8 10 11 12 10 11 12 12 11 11 10 10 11 10 11 9 8 9 9 9 9 9 8 8 8 10 11 10 11 9 9 9 9 9 9 8 8 8 7 7 8 7 7 6 6 6 6 5 5 5 4 4 3 4 3 3 4 3 3 3 4 4 4 4 4 4 3 3 3 4 4 4 4 3
3 2 5 8 6 6 9 2 9 9 9 6 8 12 11 10 7 5 7 9 11 11 9 9 11 12 12 12 12 12 11 10 11 12 11 11 11 11 10 10 10 9 9 9 8 8 8 8 9 9 11 10 10 8 8 8 7 6 6 7 7 7 7 7 6 7 6 6 6 6 6 5 5 4 4 4 4 3 3 3 4 4 4 5 5 5 5 5 5 4 4 3 4 4 4 4 3
2 1 5 1 2 7 8 9 2 2 9 5 3 4 6 8 9 11 13 13 12 11 11 12 13 13 12 12 13 14 14 13 13 13 12 11 11 11 11 11 11 11 10 9 9 7 9 9 10 10 9 9 9 9 8 8 7 7 7 7 7 7 7 6 6 6 6 6 6 6 6 6 5 4 4 4 4 4 4 4 4 4 4 4 4 4 4 4 4 3 3 3 4 4 4 4 3
7 6 9 5 3 3 4 2 6 5 5 7 8 7 3 5 4 8 10 12 12 14 13 12 12 13 13 13 14 15 15 14 14 13 12 12 12 12 11 10 10 9 8 8 8 9 9 9 9 10 11 10 10 9 8 8 7 7 8 8 7 7 7 6 7 7 7 6 5 5 5 5 4 4 4 4 4 4 4 3 3 3 3 3 4 4 4 4 3 3 3 3 3 4 4 4 4
13 14 15 15 11 8 7 8 3 2 2 5 5 11 1 3 4 6 8 6 7 9 8 10 11 13 13 13 15 14 13 13 12 12 11 11 11 11 10 9 8 8 8 9 8 9 9 9 9 10 9 9 9 9 8 8 7 7 8 8 7 6 6 6 7 6 6 5 5 5 4 4 5 4 4 4 4 3 3 3 3 3 3 3 3 3 3 3 3 4 3 2 3 4 4 4 4
Wind_Direction
272 253 295 285 273 268 276 210 238 125 237 96 115 220 77 45 55 189 103 195 142 65 25 6 7 334 348 7 342 9 38 8 25 14 55 68 88 58 85 70 71 151 150 166 144 146 168 163 164 148 152 157 150 147 142 135 132 131 132 132 132 134 130 132 128 128 126 123 120 118 112 110 108 107 101 103 108 106 100 97 93 87 82 75 66 72 70 68 63 54 49 45 42 40 37 37 36
299 303 265 273 266 278 192 89 277 139 109 120 66 65 90 107 229 47 62 45 37 44 14 357 353 351 301 292 316 264 73 46 37 63 97 76 105 67 85 49 80 155 154 157 151 157 168 161 155 153 154 153 150 149 146 139 137 132 133 135 134 133 135 132 132 130 128 126 122 118 116 115 112 110 107 107 109 105 102 97 94 95 91 82 83 72 68 64 56 49 42 38 37 36 38 37 39
311 306 285 226 250 252 324 216 264 132 181 101 90 67 147 174 70 74 52 46 45 32 17 352 319 265 261 236 216 333 94 60 55 61 78 83 180 41 47 67 34 167 158 160 149 161 167 159 147 159 160 155 154 151 148 143 138 137 136 139 136 136 136 137 136 132 129 128 123 118 117 117 113 110 109 108 107 108 102 97 94 90 89 86 79 73 69 61 53 48 41 37 35 34 36 38 37
284 280 302 295 221 213 227 212 273 260 48 79 116 115 58 71 83 61 53 49 53 4 345 91 278 58 307 56 52 241 78 79 44 358 70 42 23 352 26 130 43 199 151 171 158 158 180 133 147 160 165 159 157 153 149 147 143 140 138 143 140 137 139 140 140 135 132 131 128 122 122 120 115 110 107 107 108 108 108 102 98 99 94 84 77 77 68 58 53 48 42 39 38 36 35 36 36
269 260 280 271 284 201 288 317 336 283 98 337 104 119 109 79 84 68 69 72 80 14 335 20 241 85 34 9 348 11 29 116 54 42 45 78 3 2 17 116 224 174 157 174 169 161 144 139 141 161 168 165 158 155 152 149 146 143 143 142 144 144 141 149 142 140 133 135 134 131 130 127 123 117 113 109 109 110 107 105 101 91 82 77 76 68 62 61 59 52 45 42 41 37 35 35 35
257 265 219 264 293 1 252 202 197 75 38 2 125 103 97 72 84 66 92 87 77 36 16 317 7 14 143 51 22 36 4 22 353 66 343 33 6 0 64 167 322 186 162 167 172 162 134 133 142 150 177 169 163 162 156 151 150 150 148 148 148 150 145 155 146 148 148 142 144 142 141 139 132 123 118 114 113 112 111 103 91 81 73 71 70 69 68 64 60 53 48 45 42 38 35 35 35
347 300 200 214 177 230 263 278 91 84 62 4 89 119 99 92 81 193 126 125 109 91 10 13 340 258 185 117 94 63 42 10 357 12 7 348 9 17 18 38 55 127 154 161 164 152 122 123 130 151 162 169 169 162 160 156 156 156 156 153 154 154 155 165 156 161 162 159 155 157 155 148 145 130 126 119 118 116 109 100 90 83 80 77 75 73 68 62 56 51 49 47 44 41 37 35 35
248 293 76 263 144 241 255 62 68 20 92 44 60 87 87 94 83 102 105 273 106 180 85 58 281 316 73 254 95 82 47 52 69 37 33 32 30 42 26 11 87 112 144 144 169 86 111 119 117 139 165 165 165 170 161 156 159 163 157 155 160 159 163 164 171 171 169 170 172 169 168 159 146 137 132 126 125 121 111 101 89 85 83 82 80 74 67 59 54 51 48 47 48 45 41 38 37
242 271 130 266 193 258 195 109 84 69 108 112 100 69 71 59 19 313 106 76 129 83 52 28 8 283 95 125 85 90 51 55 86 49 42 39 36 26 40 25 38 85 100 120 173 117 131 111 101 135 175 166 172 177 168 162 164 167 158 160 163 164 167 158 174 187 190 176 185 177 158 164 160 149 145 137 135 129 116 104 94 88 87 82 78 71 63 57 53 50 48 46 49 48 45 42 40
240 280 210 276 1 195 199 127 182 106 111 86 96 105 99 114 101 330 10 113 53 126 57 344 317 16 319 137 127 70 50 34 47 45 34 43 37 41 49 33 43 73 100 110 159 178 105 114 90 47 167 162 181 184 178 169 168 170 164 163 163 165 167 163 171 196 208 176 183 179 171 180 167 151 144 136 128 127 118 106 97 94 87 84 78 72 61 56 54 53 48 45 47 48 47 43 43
253 154 354 258 215 167 225 140 113 155 132 135 107 88 75 90 258 149 6 56 74 31 103 347 243 27 261 89 58 102 64 45 36 28 21 45 55 35 54 42 33 19 74 78 119 179 134 155 112 45 60 162 182 183 182 186 172 172 164 168 166 168 170 172 168 197 204 204 154 182 178 152 147 141 146 137 124 126 113 108 104 100 95 87 86 74 65 58 55 54 52 48 45 47 47 44 43
263 212 192 255 238 263 135 124 133 106 124 154 117 99 69 86 210 230 180 231 97 156 66 354 28 330 287 161 136 135 61 35 26 23 14 24 64 75 55 59 36 38 38 89 107 164 179 136 173 142 77 56 137 195 185 205 186 174 169 175 171 169 167 173 167 186 190 135 136 156 163 165 151 154 155 140 131 126 121 117 113 108 101 97 92 81 73 66 60 56 54 51 48 48 49 47 44
314 358 236 255 28 281 57 196 132 131 158 168 129 83 100 201 262 354 8 284 114 219 96 26 342 285 265 99 114 138 51 25 16 15 19 18 56 92 103 78 55 52 53 33 171 139 150 179 184 189 177 116 98 120 200 191 198 199 183 174 176 170 166 160 169 175 153 126 127 147 136 159 142 153 163 139 133 134 126 121 119 114 107 101 94 88 81 76 66 62 57 52 51 50 50 48 47
311 355 312 289 6 309 216 85 133 187 178 113 68 97 119 263 56 342 311 277 107 34 47 5 303 357 271 250 164 136 35 14 -0 10 4 31 66 80 80 90 78 70 59 88 107 122 152 237 190 198 166 193 214 172 180 184 185 203 211 195 173 170 162 161 164 165 149 125 121 122 118 110 146 159 138 119 140 134 125 116 118 113 108 102 95 91 88 80 73 69 60 54 52 51 48 47 46
337 322 271 19 144 222 95 228 185 213 125 132 76 49 144 83 11 350 337 317 75 32 89 216 356 283 64 290 73 10 356 355 348 348 358 44 83 79 84 102 112 93 86 72 70 118 154 249 255 231 203 207 211 220 220 185 180 185 193 196 211 175 165 162 164 160 137 117 120 126 132 110 77 68 67 89 50 117 123 113 112 116 114 109 102 99 98 89 85 77 68 62 57 54 53 51 47
343 274 264 224 178 236 144 231 192 237 129 124 102 86 227 123 98 265 59 347 336 105 296 129 157 321 10 350 34 348 347 349 344 328 283 121 110 119 109 100 92 96 94 112 123 109 173 194 218 225 226 219 211 219 219 211 173 173 175 173 192 225 182 163 163 143 126 119 129 139 139 132 131 126 110 100 71 121 132 120 121 124 122 114 111 111 107 106 101 95 84 77 68 66 67 63 53
290 266 229 211 194 218 135 213 173 225 109 107 137 149 268 155 135 254 43 268 273 122 304 34 60 39 57 43 6 4 1 359 358 10 0 141 189 139 102 63 106 94 88 84 69 99 134 235 219 221 221 223 219 217 225 222 161 170 168 173 173 198 218 140 132 127 129 118 136 147 152 168 169 154 154 162 97 222 109 124 120 124 122 123 124 119 120 118 115 112 103 95 88 90 91 88 72
251 236 253 226 73 208 123 219 127 86 147 127 138 17 309 251 145 134 244 225 235 261 226 97 80 74 73 73 39 23 23 21 20 35 42 49 13 50 60 52 30 46 51 41 67 45 348 199 215 240 228 232 228 223 225 233 158 185 205 175 182 182 182 174 164 178 178 163 140 156 191 198 187 169 172 148 161 154 156 131 126 126 129 139 128 132 128 122 125 120 117 108 117 119 171 132 99
288 266 246 29 51 70 25 65 89 200 111 88 106 42 318 339 341 82 295 198 200 282 158 133 104 107 92 61 43 34 28 34 29 37 46 43 39 43 41 33 33 23 34 7 23 9 9 336 267 218 243 235 231 221 222 231 210 203 214 204 189 183 183 180 192 196 204 195 186 203 221 222 196 170 169 150 150 173 146 150 134 135 139 142 133 139 130 123 124 123 117 128 130 165 132 82 70
70 291 244 97 70 100 78 97 107 47 71 164 192 123 296 340 301 12 270 302 284 255 98 162 143 103 44 43 38 28 34 38 36 35 42 39 35 29 29 20 19 16 7 356 347 11 3 348 338 297 225 230 227 221 214 214 223 213 212 194 200 190 191 201 204 186 201 213 216 217 226 229 227 146 110 124 133 165 139 153 136 139 143 145 139 137 119 118 114 101 117 153 186 71 70 70 62
72 256 335 97 121 164 152 130 81 86 1 325 278 61 266 210 327 307 305 295 260 96 45 7 342 11 27 32 33 25 34 38 38 37 40 38 35 32 24 19 10 359 6 327 359 355 357 348 340 302 266 220 227 226 214 213 214 211 216 212 194 188 194 213 197 198 183 195 208 223 229 213 222 159 146 150 172 169 154 158 151 155 162 156 187 154 142 143 149 138 151 226 49 56 54 57 53
280 11 56 99 139 227 123 130 69 75 359 294 271 257 310 53 267 254 279 268 348 46 46 38 36 32 30 24 28 32 34 37 35 33 34 35 27 25 16 14 12 7 7 353 353 340 350 334 332 316 292 239 209 226 212 209 209 216 207 213 207 195 191 200 215 200 201 199 194 216 223 249 220 198 173 178 179 168 165 163 172 175 175 170 199 205 161 160 123 93 62 46 46 52 46 51 57
258 139 141 126 73 309 124 148 129 213 215 237 249 292 344 268 277 253 271 301 73 72 66 72 74 51 51 48 31 42 38 32 29 28 23 27 25 25 14 7 3 1 353 358 343 342 340 332 326 308 272 251 210 220 216 211 202 211 207 205 222 199 201 217 201 202 202 205 231 191 205 228 232 209 202 195 188 175 180 178 179 176 183 188 201 196 108 116 105 88 74 70 61 63 61 68 71
283 36 138 163 137 240 127 158 146 206 225 239 286 13 271 264 260 112 231 84 91 85 81 89 85 88 66 63 51 49 42 33 28 24 21 23 22 27 12 5 358 356 354 355 350 342 336 337 309 278 237 232 200 205 207 201 202 206 168 189 277 123 139 234 346 42 160 225 207 236 252 279 304 282 226 213 192 186 189 183 189 197 203 190 209 143 149 95 75 81 91 96 103 77 65 62 73
239 244 150 115 254 247 212 192 201 213 226 250 217 256 253 234 262 168 185 110 114 112 115 100 103 96 74 58 53 48 43 37 27 27 33 30 23 25 20 8 1 7 3 355 350 348 346 337 317 284 219 223 202 186 199 193 190 184 177 185 173 69 95 51 54 40 43 42 18 348 9 328 291 249 211 238 183 199 167 174 191 200 205 172 201 113 94 97 100 113 120 96 56 65 56 41 64
253 24 99 167 224 217 213 237 234 223 228 211 228 244 242 217 84 238 122 133 126 128 125 132 128 97 72 60 52 44 43 34 20 17 21 27 24 18 21 11 7 13 358 352 354 353 348 340 330 329 203 205 180 175 182 178 169 78 56 45 49 50 45 50 54 56 47 38 32 19 34 14 343 338 326 237 209 39 282 175 203 148 100 43 54 72 76 98 109 100 84 89 81 75 68 40 50
327 20 290 273 273 244 235 241 248 210 233 185 234 261 225 146 195 197 144 141 144 149 130 131 150 97 75 68 60 47 50 40 29 12 26 25 20 18 15 10 10 359 347 350 351 353 346 353 9 342 202 0 170 159 69 67 64 71 67 61 60 64 62 61 60 62 57 49 35 40 37 36 24 28 16 343 314 193 222 33 48 47 54 42 35 49 80 70 61 50 25 17 55 60 58 49 28
336 325 289 256 249 242 235 228 246 216 235 212 238 252 114 147 188 270 140 146 162 161 143 137 137 93 82 69 60 47 44 36 24 27 24 20 18 6 12 4 352 344 349 348 342 345 350 358 345 358 127 192 70 71 73 72 72 75 76 71 66 65 66 64 59 59 53 47 43 52 56 47 48 51 57 32 28 60 61 68 64 61 62 63 63 43 50 63 84 80 74 53 33 42 63 44 345
326 283 290 287 247 243 227 230 199 192 212 181 201 233 223 179 218 125 130 153 167 166 151 151 132 116 96 76 64 49 38 24 26 27 23 21 17 9 5 9 352 336 346 345 352 6 14 16 18 23 42 54 70 72 78 80 76 65 69 73 68 61 62 65 63 52 49 44 36 43 48 48 50 53 55 70 49 61 70 65 69 69 60 50 77 107 123 130 106 102 102 160 76 96 42 10 239
265 240 269 288 265 246 141 129 172 211 114 173 183 255 218 191 147 131 135 160 172 170 176 163 146 138 116 102 95 81 57 54 46 36 23 19 12 9 3 3 1 351 340 349 4 20 24 27 34 32 43 55 55 66 69 72 75 69 65 78 70 62 64 66 64 63 57 50 41 35 47 57 55 56 55 57 73 69 70 63 56 69 58 53 42 26 78 109 107 112 131 124 53 306 130 335 312
260 295 230 267 273 248 141 162 147 200 131 174 228 255 52 140 126 123 146 161 176 186 169 162 154 146 136 123 120 109 97 63 55 48 40 31 20 16 1 4 4 0 351 359 14 27 39 38 29 42 40 65 65 67 65 63 68 70 62 62 62 58 57 56 47 51 54 51 47 44 40 49 56 58 59 67 66 67 68 63 47 43 33 27 44 6 67 40 51 61 26 9 132 355 10 310 320
238 267 246 207 245 127 143 144 183 235 149 202 217 256 270 152 151 136 140 175 190 209 170 161 154 148 134 137 133 124 100 97 71 57 41 34 28 13 12 6 7 2 4 354 14 39 50 37 40 58 50 66 64 65 67 67 66 68 65 60 61 58 61 55 48 46 48 48 49 49 42 44 50 52 59 62 67 60 58 53 41 30 36 26 19 36 44 47 43 50 32 8 3 29 350 10 356
220 234 268 269 239 244 181 155 190 248 141 176 210 273 82 159 140 137 151 165 195 207 178 171 157 150 154 144 138 126 137 118 83 54 37 29 27 18 19 11 12 8 2 2 11 34 52 48 33 54 57 63 72 73 74 72 74 75 71 68 66 62 60 57 51 46 43 42 40 44 43 44 44 45 44 49 67 66 62 61 49 38 23 32 33 38 44 41 45 45 34 19 17 33 21 5 349
237 200 257 266 264 265 270 111 191 158 224 204 205 243 265 110 163 158 161 184 191 205 189 172 164 157 144 145 152 145 135 108 69 42 31 26 25 23 29 25 18 5 3 14 23 34 52 59 58 46 67 67 70 74 77 79 77 77 75 71 66 64 59 56 55 53 48 42 40 38 38 41 40 38 44 50 59 63 67 66 58 55 53 49 52 48 49 43 45 48 49 28 19 20 23 8 352
275 193 242 256 234 237 270 252 141 191 188 268 233 239 259 235 157 170 168 183 194 207 188 178 169 164 162 160 153 146 126 115 71 44 25 27 28 32 32 24 18 16 24 22 31 44 56 66 70 64 63 69 75 81 82 80 78 78 73 67 65 65 62 57 56 56 51 48 46 36 35 40 40 38 32 39 52 53 54 57 55 40 48 51 47 48 48 46 52 50 51 47 51 41 16 7 350
289 294 289 296 281 250 250 211 117 232 215 235 246 255 258 263 173 170 169 178 203 190 157 162 171 167 168 170 168 163 154 114 77 52 34 38 39 39 39 32 23 26 27 29 42 35 48 65 65 64 60 61 66 73 75 79 78 76 79 75 68 61 62 59 55 56 52 50 46 45 40 41 35 35 40 43 46 46 52 53 51 40 43 47 48 46 40 37 27 51 52 38 45 46 27 6 355
307 294 278 271 275 272 274 148 127 124 270 252 257 261 264 264 261 178 175 174 193 187 189 180 180 178 176 176 170 161 153 116 95 84 68 57 57 50 55 37 49 47 35 45 56 46 45 69 71 62 63 58 66 71 70 75 78 78 72 71 74 68 64 66 62 55 53 51 51 51 51 47 38 33 37 47 55 57 55 50 49 53 51 45 44 43 36 34 24 15 65 51 47 43 26 8 357
269 276 271 267 253 264 274 294 128 148 243 271 270 265 256 267 269 193 163 174 196 196 196 190 180 179 177 177 170 173 140 123 148 128 109 96 69 70 64 57 50 66 39 43 52 56 61 59 62 67 63 60 56 56 63 65 62 70 83 77 81 70 64 62 62 55 55 52 48 48 48 45 44 42 37 38 45 48 52 50 47 47 45 46 50 46 40 36 33 30 14 83 63 52 41 15 9
246 256 258 260 256 267 267 162 142 170 173 270 264 267 267 263 266 171 184 191 200 193 194 192 181 178 179 178 174 165 160 155 153 128 121 108 97 85 82 59 61 62 57 53 55 65 59 60 58 60 61 63 61 66 73 76 76 74 83 86 86 85 71 70 72 67 60 58 50 46 44 43 41 42 40 38 39 39 46 50 49 48 48 44 44 41 37 36 30 30 28 20 60 60 59 34 25
248 234 235 239 259 253 256 127 178 169 242 316 326 286 275 270 264 193 179 188 132 127 154 149 183 186 186 181 175 175 169 163 160 152 136 120 116 114 95 82 75 74 75 58 61 64 66 69 75 76 73 70 70 65 76 82 85 87 84 89 85 85 88 79 76 69 62 57 53 47 44 42 43 44 39 38 40 37 37 42 44 43 45 46 48 47 40 36 31 26 27 26 18 48 35 46 38
221 233 243 246 239 234 243 293 142 194 238 242 272 273 268 250 244 176 152 124 153 168 181 186 194 200 124 102 123 186 174 167 154 145 136 138 130 114 101 94 94 85 74 68 63 79 82 82 83 86 84 84 84 87 91 97 97 93 93 97 97 96 91 84 78 68 64 61 60 50 46 45 45 46 43 42 41 41 39 39 44 46 48 46 49 50 47 38 32 29 25 30 27 22 37 30 45
245 219 223 243 255 264 268 274 321 291 284 183 229 296 276 237 227 209 142 174 198 182 188 196 184 182 177 187 182 163 125 139 157 144 138 131 126 118 109 104 96 99 83 64 69 87 93 92 92 94 94 91 92 96 105 105 104 111 117 111 107 95 85 77 72 76 71 65 63 63 55 50 52 50 48 48 45 46 45 43 43 47 47 44 43 47 45 41 33 29 24 26 25 17 22 35 26
251 264 194 234 251 267 270 269 144 273 271 83 264 244 280 150 195 185 157 180 187 166 202 190 178 178 180 185 173 174 173 163 131 128 139 138 132 125 118 98 93 87 74 71 79 82 88 89 88 91 91 87 82 88 109 117 97 86 86 90 95 97 96 84 86 82 83 79 74 67 64 54 49 52 47 46 46 45 47 43 44 45 44 43 40 42 40 38 36 31 25 29 28 22 17 39 30
246 51 163 196 243 243 244 238 237 260 297 190 199 246 275 276 266 146 164 188 185 182 193 190 181 178 181 177 173 169 167 163 159 155 148 138 134 134 116 104 96 86 80 76 74 74 79 84 87 87 85 85 81 84 84 92 99 94 95 94 91 93 94 97 92 87 86 86 82 76 71 62 54 51 51 47 45 42 42 42 40 42 44 41 42 45 43 37 37 36 34 30 34 34 28 28 30
261 66 65 196 247 261 247 242 246 254 301 265 191 208 263 265 236 156 173 213 215 209 187 188 183 181 178 175 170 166 165 159 160 157 155 149 139 123 120 109 97 90 77 79 81 81 83 85 88 88 88 86 84 84 86 88 94 98 100 102 99 95 99 99 100 98 93 88 85 80 74 70 63 54 50 49 45 45 43 43 42 44 42 41 41 45 41 40 39 37 32 31 29 37 37 28 27
117 122 78 78 87 106 235 230 239 248 242 249 232 192 249 268 234 183 177 256 241 211 187 184 183 177 175 171 165 163 156 155 156 151 143 134 128 114 108 109 103 89 88 90 89 92 92 93 95 93 91 89 91 91 90 91 93 98 99 104 107 109 108 107 102 98 95 89 84 79 71 68 63 60 54 48 47 45 44 44 45 43 44 41 41 41 41 41 38 38 38 38 30 34 35 36 33
132 139 125 119 133 170 183 233 251 266 245 249 230 217 216 284 259 198 197 214 218 148 162 172 167 166 167 166 163 162 159 156 153 145 140 130 122 128 128 123 112 108 108 104 100 103 103 105 103 97 95 96 95 93 94 94 95 98 103 105 106 108 107 110 110 101 100 94 87 83 79 72 67 64 57 51 45 43 48 46 47 44 42 41 38 36 33 34 34 34 33 39 37 33 26 32 35
161 158 176 162 189 188 222 222 216 243 261 234 218 234 203 231 229 211 75 72 96 142 170 168 166 167 164 160 161 160 158 155 152 148 143 141 138 132 135 130 132 128 126 120 115 115 115 115 113 107 102 101 99 98 97 95 97 99 101 103 103 106 108 107 105 102 98 96 93 91 87 81 72 67 61 53 43 40 44 45 44 48 44 38 37 35 31 25 33 35 34 34 32 34 28 28 31
209 181 180 193 226 159 224 196 216 217 247 103 28 74 205 238 252 55 117 136 110 50 147 167 162 161 157 155 155 157 155 152 157 156 152 156 154 152 151 142 137 141 139 135 130 124 123 123 122 116 109 107 103 103 101 103 101 99 101 101 98 99 100 100 100 100 95 90 87 85 84 81 73 64 54 54 45 40 42 44 42 40 41 37 33 31 29 23 23 38 34 33 36 32 28 20 34
189 193 181 197 227 226 245 230 232 252 98 288 89 205 249 299 243 251 217 97 86 89 55 147 157 156 152 153 153 155 156 160 160 158 159 159 158 159 155 151 149 145 144 140 137 133 130 129 126 119 114 112 113 110 108 105 99 100 99 100 102 101 99 96 93 91 89 86 86 85 83 82 77 69 62 55 43 45 48 45 46 47 41 38 32 28 25 24 16 36 35 30 30 29 19 15 35
198 196 193 201 209 227 239 219 227 239 233 100 249 147 238 175 189 59 89 84 94 79 84 110 142 140 142 148 151 154 161 164 163 162 166 164 162 160 158 158 151 149 149 145 141 140 135 131 130 126 121 119 119 115 111 105 104 100 99 97 101 101 98 97 91 89 91 91 88 90 84 79 80 75 66 64 52 51 54 52 45 44 41 37 32 25 18 26 15 23 38 29 29 26 6 13 11
190 198 220 229 227 271 257 20 342 63 201 172 172 229 244 227 112 108 110 126 99 117 112 130 133 140 142 151 160 166 170 168 168 168 167 166 164 163 161 160 155 154 153 149 149 144 140 136 134 130 127 126 122 117 111 107 102 99 95 94 94 95 97 98 96 91 90 89 90 90 86 82 85 85 74 64 57 50 47 50 51 46 40 37 32 27 18 17 8 17 25 22 21 16 355 5 2
171 162 209 193 25 178 79 155 116 294 314 255 159 231 244 204 172 148 154 148 150 145 144 151 151 147 153 162 169 172 175 174 174 174 171 169 166 167 165 161 159 158 159 161 155 150 146 140 137 132 128 123 118 114 108 106 106 104 102 100 100 98 96 96 98 98 93 88 88 84 85 85 81 78 79 65 58 54 44 39 46 43 35 32 26 25 16 9 350 18 19 15 16 359 342 352 4
117 211 195 81 42 2 241 253 188 216 255 261 160 210 223 181 237 132 158 179 171 178 168 170 161 160 165 175 177 178 178 176 174 173 172 172 170 168 166 165 164 165 164 160 155 150 145 145 143 136 134 128 124 120 116 116 113 108 106 104 100 99 98 100 100 100 96 98 97 95 95 91 82 84 87 81 77 71 68 51 51 46 43 33 30 22 12 8 354 16 9 24 24 353 345 353 1
248 240 111 154 198 217 212 231 249 242 240 260 215 214 233 213 213 143 189 191 188 183 170 173 175 178 180 179 182 180 173 172 175 180 178 177 174 173 170 167 166 166 164 158 154 148 148 146 144 140 135 133 129 125 123 119 116 113 112 110 108 104 100 99 98 99 100 98 92 93 97 99 104 97 90 86 78 68 59 48 50 37 32 31 25 21 11 7 357 13 0 12 20 360 347 339 341
290 196 214 223 324 220 189 200 288 245 248 232 257 132 246 198 227 175 195 195 183 166 172 192 191 185 181 180 180 180 181 183 182 183 183 179 175 172 170 168 168 166 164 161 154 150 152 148 146 140 134 133 130 131 131 127 122 122 118 112 107 105 104 106 108 105 101 97 100 105 104 97 92 90 84 78 76 63 54 47 37 38 29 27 24 15 8 359 351 13 354 5 353 344 336 327 335
174 200 204 166 213 23 325 271 214 223 246 244 270 257 229 195 202 201 198 187 169 170 182 186 190 190 188 184 182 184 186 185 185 183 179 176 172 170 168 168 164 161 161 157 159 159 155 152 150 147 145 143 141 138 135 130 129 126 126 121 118 112 105 102 100 98 99 98 96 93 90 95 91 81 77 77 72 63 54 50 46 39 37 22 21 10 0 354 352 353 345 347 330 328 327 318 323
190 186 199 187 177 183 194 230 112 235 201 247 240 256 283 97 37 40 52 41 147 172 176 177 184 183 186 190 191 188 187 189 182 178 175 169 167 164 163 160 159 161 165 164 161 164 159 159 155 152 149 149 145 143 139 138 136 134 128 122 115 110 104 100 101 99 96 98 96 87 91 94 91 82 77 76 75 68 59 47 48 39 32 28 12 7 352 353 349 338 335 335 320 325 319 315 317